Home   Weather   Dülmen   Past weeks

Flag for Germany Past Weather in Dülmen, North Rhine-Westphalia, Germany — Yesterday and Last 2 Weeks

Now
50 °F

Scattered clouds.


Feels Like: 44 °F
Forecast: 45 / 51 °F
Wind: 16 mph from Southwest

Location: Dortmund / Wickede

Current Time: Feb 26, 2017 at 6:10:45 pm

Latest Report: Feb 26, 2017 at 5:20 pm


Visibility: N/A

Pressure: 29.80 "Hg

Humidity: 71%

Dew Point: 41 °F

Location of DülmenLocation

Past Weather in Dülmen — Graph

°F

Dülmen Temperature Yesterday

Maximum temperature yesterday: 45 °F (at 1:20 pm)
Minimum temperature yesterday: 32 °F (at 5:20 am)
Average temperature yesterday: 41 °F

High & Low Weather Summary for the Past Weeks

 TemperatureHumidityPressure
High61 °F (Feb 15, 2:50 pm)94% (Feb 20, 9:50 pm)30.51 "Hg (Feb 20, 9:50 pm)
Low28 °F (Feb 13, 5:20 am)29% (Feb 15, 2:50 pm)29.18 "Hg (Feb 23, 4:56 pm)
Average42 °F72%30.09 "Hg
* Reported Feb 11 4:20 pm — Feb 26 4:50 pm, Dülmen, Weather by CustomWeather, © 2017

Note: Actual official high and low records may vary slightly from our data, if they occured in-between our weather recording intervals... More about our weather records

Advertising

Dülmen Weather History for the Previous 24 Hours

Scroll right to see more
 ConditionsComfort  
Time TempWeatherWind HumidityBarometerVisibility
4:50 pm
Sun, Feb 26
50 °FPartly sunny.15 mph67%29.80 "HgN/A
4:20 pm50 °FPartly sunny.15 mph67%29.83 "HgN/A
3:50 pm50 °FPartly sunny.15 mph67%29.83 "HgN/A
3:20 pm50 °FPartly sunny.14 mph67%29.83 "HgN/A
2:50 pm50 °FPartly sunny.14 mph67%29.83 "HgN/A
2:20 pm50 °FPartly sunny.16 mph67%29.83 "HgN/A
1:50 pm50 °FPartly sunny.15 mph67%29.83 "HgN/A
1:20 pm48 °FPartly sunny.18 mph66%29.83 "HgN/A
12:50 pm48 °FPartly sunny.18 mph66%29.86 "HgN/A
12:20 pm48 °FPartly sunny.16 mph62%29.86 "HgN/A
11:50 am46 °FPartly sunny.13 mph66%29.86 "HgN/A
11:20 am46 °FPartly sunny.16 mph66%29.86 "HgN/A
10:50 am46 °FPartly sunny.15 mph66%29.86 "HgN/A
10:20 am45 °FScattered clouds.16 mph71%29.86 "HgN/A
9:50 am45 °FPartly sunny.16 mph61%29.86 "HgN/A
9:20 am45 °FPartly sunny.17 mph61%29.86 "HgN/A
8:50 am45 °FScattered clouds.17 mph61%29.86 "HgN/A
8:20 am43 °FSunny.14 mph61%29.83 "Hg10 mi
7:50 am43 °FPassing clouds.12 mph61%29.83 "HgN/A
7:20 am43 °FClear.13 mph61%29.83 "Hg10 mi
6:50 am43 °FClear.14 mph61%29.83 "Hg10 mi
6:20 am43 °FClear.15 mph61%29.86 "Hg10 mi
5:50 am43 °FClear.16 mph61%29.86 "Hg10 mi
5:20 am43 °FPassing clouds.17 mph61%29.86 "HgN/A
9:50 pm
Sat, Feb 25
43 °FClear.15 mph57%29.95 "Hg10 mi
9:20 pm43 °FClear.15 mph57%29.95 "Hg10 mi
8:50 pm43 °FClear.15 mph57%29.95 "Hg10 mi
8:20 pm43 °FPassing clouds.15 mph57%29.95 "HgN/A
7:50 pm43 °FClear.16 mph57%29.98 "Hg10 mi
7:20 pm43 °FClear.18 mph53%29.95 "Hg10 mi
6:50 pm43 °FClear.16 mph57%29.95 "Hg10 mi
6:20 pm43 °FClear.16 mph57%29.98 "Hg10 mi
Weather by CustomWeather, © 2017

See weather overviewHow to use our weather pages

LIVE ANNULAR SOLAR ECLIPSE – Watch the eclipse as it happens